Date,TemperatureHighF,TemperatureAvgF,TemperatureLowF,DewpointHighF,DewpointAvgF,DewpointLowF,HumidityHigh,HumidityAvg,HumidityLow,PressureMaxIn,PressureMinIn,WindSpeedMaxMPH,WindSpeedAvgMPH,GustSpeedMaxMPH,PrecipitationSumIn
2013-5-1,70,53,33,44,37,31,94,62,27,30.48,30.37,5,1,13,0.00
2013-5-2,79,56,37,51,41,36,98,65,24,30.48,30.35,5,1,13,0.00
2013-5-3,59,48,37,45,41,35,97,76,59,30.50,30.37,8,3,20,0.00
2013-5-4,60,47,35,45,38,34,97,73,40,30.37,30.30,7,2,19,0.00
2013-5-5,64,48,34,44,39,32,97,74,46,30.33,30.25,7,2,20,0.00
2013-5-6,74,55,38,51,46,37,96,75,41,30.31,30.16,3,1,11,0.00
2013-5-7,79,61,44,60,52,44,98,76,47,30.20,30.12,4,1,13,0.00
2013-5-8,75,63,51,63,58,50,98,85,58,30.19,30.05,4,1,14,0.26
2013-5-9,71,62,56,63,59,55,98,91,68,30.05,29.88,2,0,11,0.18
2013-5-10,84,66,53,61,56,52,98,73,38,29.97,29.90,3,1,11,0.00
2013-5-11,70,61,57,61,59,54,98,91,70,29.95,29.72,4,1,13,0.23
2013-5-12,73,61,44,62,54,37,98,81,49,29.83,29.58,4,1,15,0.05
2013-5-13,63,50,33,38,32,27,96,55,30,30.03,29.83,3,1,13,0.00
2013-5-14,60,49,34,37,32,26,90,54,31,30.06,29.98,7,1,15,0.00
2013-5-15,65,52,32,54,42,30,97,72,33,30.07,29.70,5,1,16,0.01
2013-5-16,84,65,46,55,48,37,98,63,21,29.80,29.66,4,1,13,0.00
2013-5-17,71,58,44,50,44,38,93,63,34,30.23,29.80,7,2,16,0.00
2013-5-18,74,57,38,52,45,37,98,68,31,30.32,30.23,3,0,11,0.00
2013-5-19,74,58,44,54,50,43,98,78,41,30.36,30.24,3,1,13,0.13
2013-5-20,86,68,55,68,62,54,98,83,53,30.24,29.92,3,0,8,0.07
2013-5-21,89,67,52,72,61,51,98,85,52,29.99,29.84,5,2,14,0.92
2013-5-22,75,62,51,67,58,50,98,89,72,30.02,29.88,6,1,15,0.02
2013-5-23,77,66,61,69,64,60,98,92,74,29.93,29.84,5,2,14,0.07
2013-5-24,71,63,50,67,61,49,98,95,83,29.84,29.67,5,1,13,0.99
2013-5-25,53,49,41,51,47,39,98,95,91,29.80,29.70,5,2,14,0.25
2013-5-26,61,50,40,43,40,38,95,71,44,30.13,29.75,6,2,20,0.01
2013-5-27,74,57,38,47,40,34,98,60,25,30.17,30.08,5,1,17,0.00
2013-5-28,79,60,40,57,48,39,98,69,28,30.24,30.17,2,0,8,0.00
2013-5-29,78,65,58,66,61,56,97,88,66,30.21,30.01,3,1,11,0.99
2013-5-30,91,76,62,73,68,61,99,77,49,30.10,30.01,3,0,11,0.23
2013-5-31,97,79,61,72,67,60,98,69,42,30.09,29.96,3,0,10,0.00